Retour au catalogue

ONEWEB-0204

ActifCommunicationsPO
NORAD 48225·PAYLOAD·🇬🇧 United Kingdom

Lancé Apr 25, 2021 depuis Vostochny Cosmodrome

Loading…

Prochains Passages (prochaines 24 heures)

TLE

FraisSource: CelesTrak SupGP

Époque: Sep 14, 2026, 16:29 UTC

1 48225C 21031R   26257.68730738 -.00002521  00000+0 -68096-2 0  2571
2 48225  87.8893 271.8558 0002118 101.7517 310.4005 13.14502547    12

Suivez ONEWEB-0204 en temps réel avec AllMySat

Download on the App Store